Weather History for Grand Marais, MN

Change the Weather History Date:

Sunday, April 28, 2013

  Actual Average (KCKC) Record (KCKC)
Temperature  
Mean Temperature 42 °F -  
Max Temperature 55 °F 50 °F 66 °F (2004)
Min Temperature 37 °F 30 °F 21 °F (2008)
Degree Days  
Heating Degree Days 22    
Moisture  
Dew Point 38 °F    
Average Humidity 81    
Maximum Humidity 93    
Minimum Humidity 66    
Precipitation  
Precipitation 0.07 in - - ()
Sea Level Pressure  
Sea Level Pressure 29.79 in    
Wind  
Wind Speed 1 mph (ENE)    
Max Wind Speed 8 mph    
Max Gust Speed -    
Averages and records for this station are not official NWS values.
T = Trace of Precipitation, MM = Missing Value Source: NWS Daily Summary

Daily Weather History Graph

Daily Weather History Graph

Search for Another Location

Airport:

Trip Planner

Search our weather history database for the weather conditions in past years. The results will help you decide how hot, cold, wet, or windy it might be!

Date:

Astronomy

Apr. 28, 2013 Rise Set
Actual Time 5:48 AM CDT 8:10 PM CDT
Civil Twilight 5:14 AM CDT 8:44 PM CDT
Nautical Twilight 4:31 AM CDT 9:27 PM CDT
Astronomical Twilight 3:43 AM CDT 10:16 PM CDT
Moon 11:48 PM CDT (4/28) 7:56 AM CDT (4/28)
Length of Visible Light 15h 30m
Length of Day
14h 21m
Waning Gibbous, 88% of the Moon is Illuminated
Apr 28
Waning Gibbous
May 2
Last Quarter
May 9
New
May 17
First Quarter
May 24
Full

Hourly Weather History & Observations

Time (CDT) Temp. Windchill Dew Point Humidity Pressure Visibility Wind Dir Wind Speed Gust Speed Precip Events Conditions
12:56 AM 39.0 °F - 34.0 °F 82% 29.88 in - Calm Calm - N/A   Unknown
1:56 AM 37.0 °F - 33.1 °F 86% 29.87 in - Calm Calm - N/A   Unknown
2:56 AM 37.9 °F - 34.0 °F 86% 29.86 in - Calm Calm - N/A   Unknown
3:56 AM 37.9 °F - 34.0 °F 86% 29.85 in - Calm Calm - N/A   Unknown
4:56 AM 37.9 °F - 34.0 °F 86% 29.85 in - Calm Calm - N/A   Unknown
5:56 AM 39.0 °F - 35.1 °F 86% 29.86 in - Calm Calm - N/A   Unknown
6:56 AM 39.0 °F - 35.1 °F 86% 29.85 in - Calm Calm - N/A   Unknown
7:56 AM 44.1 °F 42.5 °F 35.1 °F 71% 29.84 in - East 3.5 mph - N/A   Unknown
8:56 AM 42.1 °F - 35.1 °F 76% 29.84 in - Calm Calm - N/A   Unknown
9:56 AM 43.0 °F - 35.1 °F 74% 29.83 in - Calm Calm - N/A   Unknown
10:56 AM 46.0 °F 44.8 °F 35.1 °F 66% 29.81 in - ENE 3.5 mph - N/A   Unknown
11:56 AM 46.9 °F - 36.0 °F 66% 29.79 in - ENE 3.5 mph - N/A   Unknown
12:56 PM 48.9 °F - 37.9 °F 66% 29.77 in - SE 6.9 mph - N/A   Unknown
1:56 PM 45.0 °F 42.6 °F 37.9 °F 76% 29.76 in - NE 4.6 mph - N/A   Unknown
2:56 PM 43.0 °F 38.2 °F 37.0 °F 80% 29.75 in - ENE 8.1 mph - N/A   Unknown
3:56 PM 48.9 °F - 39.0 °F 69% 29.73 in - ENE 3.5 mph - N/A   Unknown
4:56 PM 46.9 °F - 39.0 °F 74% 29.71 in - ENE 5.8 mph - N/A   Unknown
5:56 PM 48.9 °F - 41.0 °F 74% 29.70 in - NE 5.8 mph - N/A   Unknown
6:56 PM 48.9 °F - 46.0 °F 90% 29.70 in - Calm Calm - 0.05 in   Unknown
7:56 PM 46.9 °F - 45.0 °F 93% 29.68 in - Calm Calm - 0.02 in   Unknown
8:56 PM 42.1 °F - 39.9 °F 92% 29.72 in - Calm Calm - N/A   Unknown
9:56 PM 44.1 °F - 42.1 °F 93% 29.72 in - Calm Calm - N/A   Unknown
10:56 PM 44.1 °F - 42.1 °F 93% 29.74 in - Calm Calm - N/A   Unknown
11:56 PM 41.0 °F - 39.0 °F 93% 29.74 in - Calm Calm - N/A   Unknown